Location: Jefferson Observatory
(34.1602°N, 83.6058°W)
Time: 07:22:54
(UTC-05:00)

Amateur Radio Satellites - All Passes

Search period start: 21 January 2018 06:52
Search period end: 22 January 2018 06:52
Location: Jefferson Observatory, 34.1602°N, 83.6058°W

Satellite Date Start Highest point End Downlink Frequencies (MHz)
Time Altitude Azimuth
CUBEBUG 2 21 Jan 06:53:38 06:57:15 21° 94° (E) 07:00:50 437.445
CUTE-I 21 Jan 06:56:17 07:01:38 86° 103° (ESE) 07:06:58 437.470
UWE-3 21 Jan 06:59:52 07:01:53 13° 91° (E) 07:03:55 435.000/436.395/437.385
HO-68 21 Jan 07:01:40 07:08:27 44° 100° (E) 07:15:12 435.675
XW-2B 21 Jan 07:05:23 07:08:52 38° 286° (WNW) 07:12:20 145.730 - 145.750
ZACube-1 21 Jan 07:23:43 07:24:55 11° 91° (E) 07:26:07 437.345
AO-73 21 Jan 07:30:10 07:31:31 11° 91° (E) 07:32:52 145.935
LilacSat-2 21 Jan 07:34:57 07:37:11 15° 291° (WNW) 07:39:24 437.200
XW-2C 21 Jan 07:36:47 07:39:03 16° 290° (WNW) 07:41:18 145.795 - 145.815
FO-29 21 Jan 07:38:25 07:45:18 59° 74° (ENE) 07:51:23 435.910
AAUSAT CUBESAT 2 21 Jan 07:42:25 07:45:52 26° 97° (E) 07:49:17 437.432
RS-15 21 Jan 07:43:45 07:55:29 54° 110° (ESE) 08:07:09 29.354- 29.394
SEEDS 21 Jan 08:01:09 08:05:16 65° 284° (WNW) 08:09:22 437.485
Oscar 11 21 Jan 08:01:51 08:04:29 16° 94° (E) 08:07:05 .
FALCONSAT 3 21 Jan 08:03:40 08:07:20 75° 195° (SSW) 08:10:59 435.103
STRAND 1 21 Jan 08:12:02 08:16:19 27° 263° (W) 08:20:39 437.568
CUTE 1.7 + AOD 2 21 Jan 08:14:52 08:18:19 25° 289° (WNW) 08:21:47 437.475
TIGRISAT 21 Jan 08:25:49 08:27:20 12° 65° (ENE) 08:28:51 435.000
CUBEBUG 2 21 Jan 08:29:37 08:33:49 32° 288° (WNW) 08:38:00 437.445
UWE-3 21 Jan 08:34:04 08:38:34 51° 286° (WNW) 08:43:01 435.000/436.395/437.385
XW-2A 21 Jan 08:35:32 08:38:51 65° 283° (WNW) 08:42:08 145.665 - 145.685
UNISAT 6 21 Jan 08:39:26 08:42:32 19° 68° (ENE) 08:45:40 437.425
CUTE-I 21 Jan 08:40:10 08:40:53 10° 298° (WNW) 08:41:35 437.470
HO-68 21 Jan 08:49:51 08:55:53 31° 295° (WNW) 09:01:55 435.675
BEESAT 3 21 Jan 08:55:52 08:58:58 22° 111° (ESE) 09:02:05 437.485
ZACube-1 21 Jan 08:57:02 09:01:29 55° 285° (WNW) 09:05:49 437.345
YUBILEINY 21 Jan 09:03:07 09:07:49 15° 66° (ENE) 09:12:30 435.215
AO-73 21 Jan 09:03:37 09:08:02 53° 285° (WNW) 09:12:19 145.935
AAUSAT CUBESAT 2 21 Jan 09:18:09 09:21:06 19° 290° (WNW) 09:24:03 437.432
FO-29 21 Jan 09:25:36 09:30:27 20° 265° (W) 09:34:59 435.910
PCSat 21 Jan 09:28:53 09:33:58 44° 110° (ESE) 09:39:05 145.827
Oscar 11 21 Jan 09:36:45 09:40:40 35° 287° (WNW) 09:44:35 .
FALCONSAT 3 21 Jan 09:43:14 09:46:07 22° 208° (SSW) 09:48:59 435.103
BEESAT 2 21 Jan 09:44:59 09:47:50 19° 110° (ESE) 09:50:42 435.950
DELFI C3 21 Jan 09:50:22 09:54:12 52° 100° (E) 09:58:01 145.870
RS-15 21 Jan 09:56:37 10:08:10 45° 310° (NW) 10:19:40 29.354- 29.394
TIGRISAT 21 Jan 09:59:09 10:03:27 55° 261° (W) 10:07:52 435.000
JUGNU 21 Jan 10:02:57 10:06:00 14° 168° (SSE) 10:09:03 437.505
UNISAT 6 21 Jan 10:15:01 10:18:56 32° 263° (W) 10:22:59 437.425
PRISM 21 Jan 10:19:06 10:23:03 53° 74° (ENE) 10:27:00 437.425
Max Valier Satellite 21 Jan 10:24:46 10:28:27 82° 283° (WNW) 10:32:06 145.860
O/OREOS (USA 219) 21 Jan 10:30:59 10:35:13 40° 67° (ENE) 10:39:26 437.305
BEESAT 3 21 Jan 10:33:02 10:36:20 25° 306° (NW) 10:39:40 437.485
AIST 2D 21 Jan 10:40:29 10:43:44 35° 75° (ENE) 10:46:58 435.315
EO-88 21 Jan 10:42:33 10:46:10 75° 283° (WNW) 10:49:46 145.990 - 145.960
NANOSAT C BR1 21 Jan 10:49:37 10:51:23 12° 66° (ENE) 10:53:10 145.865
YUBILEINY 21 Jan 10:56:59 11:05:45 90° 258° (WSW) 11:14:26 435.215
QB50P2 21 Jan 11:02:22 11:05:43 23° 70° (ENE) 11:09:05 145.880/145.840
PCSat 21 Jan 11:13:18 11:17:31 23° 306° (NW) 11:21:44 145.827
BEESAT 2 21 Jan 11:21:48 11:25:18 29° 305° (NW) 11:28:52 435.950
AO-85 21 Jan 11:27:26 11:30:53 30° 112° (ESE) 11:34:29 145.980
DUCHIFAT 1 21 Jan 11:30:48 11:34:33 33° 72° (ENE) 11:38:20 145.980
EO-79 21 Jan 11:32:19 11:36:21 47° 74° (ENE) 11:40:25 145.935-145.965
JUGNU 21 Jan 11:50:14 11:54:18 19° 178° (S) 11:58:21 437.505
ESTCUBE 1 21 Jan 11:54:13 11:58:40 64° 101° (E) 12:03:05 437.505/2401.250
LO-87 21 Jan 12:00:20 12:03:56 67° 284° (WNW) 12:07:30 145.935 - 145.965
POLYITAN 1 21 Jan 12:07:17 12:11:26 62° 259° (W) 12:15:40 437.675
O/OREOS (USA 219) 21 Jan 12:11:49 12:14:12 14° 261° (W) 12:16:35 437.305
Oscar 19 21 Jan 12:12:29 12:15:36 16° 65° (ENE) 12:18:43 437.125/150
SRMSAT 21 Jan 12:13:53 12:15:25 11° 164° (SSE) 12:16:55 437.500
RS-15 21 Jan 12:18:51 12:25:09 15° 340° (NNW) 12:31:21 29.354- 29.394
NANOSAT C BR1 21 Jan 12:22:36 12:26:37 45° 260° (W) 12:30:42 145.865
BUGSAT 1 21 Jan 12:30:17 12:33:55 33° 72° (ENE) 12:37:38 437.445
QB50P2 21 Jan 12:37:59 12:41:22 23° 264° (W) 12:44:46 145.880/145.840
YUBILEINY 21 Jan 12:57:13 13:01:12 14° 282° (WNW) 13:05:11 435.215
DUCHIFAT 1 21 Jan 13:07:38 13:10:14 16° 266° (W) 13:12:52 145.980
AO-85 21 Jan 13:08:29 13:11:19 18° 310° (NW) 13:14:16 145.980
EO-79 21 Jan 13:11:05 13:12:18 11° 268° (W) 13:13:32 145.935-145.965
SPROUT 21 Jan 13:20:45 13:24:58 55° 285° (WNW) 13:29:09 437.525
VELOX 1 21 Jan 13:27:46 13:32:11 86° 103° (ESE) 13:36:35 145.980
ESTCUBE 1 21 Jan 13:34:29 13:34:52 10° 295° (WNW) 13:35:14 437.505/2401.250
JUGNU 21 Jan 13:39:00 13:42:36 17° 188° (S) 13:46:13 437.505
Gurwin Techsat 1B 21 Jan 13:39:28 13:44:46 89° 76° (ENE) 13:50:06 435.225
AO-91 21 Jan 13:40:47 13:44:02 45° 261° (W) 13:47:18 145.960
DX 1 21 Jan 13:43:04 13:46:18 20° 96° (E) 13:49:31 434.975-435.025
Oscar 19 21 Jan 13:49:22 13:54:25 53° 259° (W) 13:59:30 437.125/150
SRMSAT 21 Jan 13:59:52 14:03:50 18° 173° (S) 14:07:50 437.500
BUGSAT 1 21 Jan 14:07:00 14:09:20 15° 266° (W) 14:11:41 437.445
AO-7 21 Jan 14:21:07 14:28:45 42° 64° (ENE) 14:36:26 .
RS-15 21 Jan 14:39:15 14:45:17 15° 19° (NNE) 14:51:09 29.354- 29.394
50 SAT 21 Jan 14:52:30 14:55:26 39° 285° (WNW) 14:58:20 437.505
SO-50 21 Jan 14:55:28 15:00:13 82° 61° (ENE) 15:05:00 436.795
ITAMSAT 1 21 Jan 14:57:28 15:01:57 31° 70° (ENE) 15:06:28 435.822/435.867
ITUPSAT 1 21 Jan 15:02:53 15:05:29 14° 93° (E) 15:08:03 437.325
UKube-1 21 Jan 15:05:01 15:09:18 70° 285° (WNW) 15:13:34 .
DX 1 21 Jan 15:18:43 15:22:25 28° 289° (WNW) 15:26:07 434.975-435.025
MOZHAYETS 4 21 Jan 15:26:13 15:30:44 52° 100° (E) 15:35:11
CUBESAT XI-V 21 Jan 15:32:56 15:35:02 13° 92° (E) 15:37:07 437.345
BEESAT 21 Jan 15:40:31 15:45:00 39° 99° (E) 15:49:28 436.000
SRMSAT 21 Jan 15:48:10 15:52:20 20° 184° (S) 15:56:32 437.500
M-CUBED/EXP-1 PRIME 21 Jan 16:02:02 16:06:07 39° 70° (ENE) 16:09:59 437.505
NO-84 21 Jan 16:12:29 16:15:29 33° 128° (SE) 16:18:18 435.350 FM
AO-7 21 Jan 16:13:48 16:21:24 39° 260° (W) 16:29:06 .
DOVE 4 21 Jan 16:23:35 16:27:47 52° 75° (ENE) 16:31:52 437.250
ITAMSAT 1 21 Jan 16:37:07 16:41:21 26° 263° (W) 16:45:37 435.822/435.867
ITUPSAT 1 21 Jan 16:38:52 16:43:29 48° 287° (WNW) 16:48:05 437.325
CUTE-I 21 Jan 16:39:35 16:40:21 10° 62° (ENE) 16:41:08 437.470
RS-15 21 Jan 16:51:02 17:02:05 45° 50° (NE) 17:12:31 29.354- 29.394
KKS-1 21 Jan 16:52:20 16:54:08 12° 93° (E) 16:55:57 437.445
MOZHAYETS 4 21 Jan 17:05:14 17:07:22 13° 294° (WNW) 17:09:31
CUBESAT XI-V 21 Jan 17:08:11 17:12:36 48° 286° (WNW) 17:17:00 437.345
KAITUO 1B 21 Jan 17:12:55 17:15:00 14° 69° (ENE) 17:17:04 145.475/437.950
XW-2F 21 Jan 17:15:03 17:17:56 21° 71° (ENE) 17:20:50 145.980 - 146.000
BEESAT 21 Jan 17:19:10 17:22:26 19° 293° (WNW) 17:25:41 436.000
NUDT-PHONESAT 21 Jan 17:22:02 17:24:32 17° 70° (ENE) 17:27:03 437.300
XW-2D 21 Jan 17:24:48 17:28:13 31° 73° (ENE) 17:31:38 145.860 - 145.880
HO-68 21 Jan 17:27:36 17:32:55 23° 62° (ENE) 17:38:13 435.675
M-CUBED/EXP-1 PRIME 21 Jan 17:37:54 17:40:29 15° 260° (W) 17:43:00 437.505
SRMSAT 21 Jan 17:38:00 17:40:49 14° 193° (SSW) 17:43:39 437.500
XW-2B 21 Jan 17:42:05 17:45:49 52° 75° (ENE) 17:49:32 145.730 - 145.750
CUBEBUG 2 21 Jan 17:50:19 17:51:23 11° 65° (ENE) 17:52:27 437.445
NO-84 21 Jan 17:50:50 17:52:41 15° 321° (NW) 17:54:29 435.350 FM
LilacSat-2 21 Jan 18:11:13 18:15:00 53° 260° (W) 18:18:47 437.200
XW-2C 21 Jan 18:12:26 18:16:12 56° 260° (W) 18:19:58 145.795 - 145.815
CUTE-I 21 Jan 18:14:18 18:19:37 85° 257° (WSW) 18:24:57 437.470
PCSat 21 Jan 18:21:17 18:24:54 18° 51° (NE) 18:28:29 145.827
KKS-1 21 Jan 18:26:36 18:30:53 48° 286° (WNW) 18:35:10 437.445
AAUSAT CUBESAT 2 21 Jan 18:30:52 18:32:03 11° 67° (ENE) 18:33:15 437.432
STARS 21 Jan 18:40:05 18:44:31 87° 101° (E) 18:48:56 437.465
KAITUO 1B 21 Jan 18:45:20 18:48:39 29° 262° (W) 18:51:59 145.475/437.950
SEEDS 21 Jan 18:48:32 18:52:36 49° 75° (ENE) 18:56:40 437.485
STRAND 1 21 Jan 18:48:37 18:50:51 13° 92° (E) 18:53:04 437.568
XW-2F 21 Jan 18:49:01 18:51:53 20° 264° (W) 18:54:46 145.980 - 146.000
BEESAT 3 21 Jan 18:52:06 18:55:55 53° 59° (ENE) 18:59:39 437.485
NUDT-PHONESAT 21 Jan 18:55:07 18:58:09 23° 264° (W) 19:01:12 437.300
XW-2D 21 Jan 19:00:30 19:02:25 13° 266° (W) 19:04:20 145.860 - 145.880
CUTE 1.7 + AOD 2 21 Jan 19:02:33 19:06:47 61° 260° (W) 19:11:00 437.475
XW-2A 21 Jan 19:03:11 19:05:41 19° 71° (ENE) 19:08:11 145.665 - 145.685
RS-15 21 Jan 19:03:41 19:14:29 49° 251° (WSW) 19:24:49 29.354- 29.394
HO-68 21 Jan 19:13:00 19:20:03 60° 258° (WSW) 19:27:07 435.675
CUBEBUG 2 21 Jan 19:23:06 19:27:21 58° 260° (W) 19:31:48 437.445
UWE-3 21 Jan 19:26:30 19:30:53 80° 76° (ENE) 19:35:26 435.000/436.395/437.385
BEESAT 2 21 Jan 19:42:04 19:45:56 47° 58° (ENE) 19:49:43 435.950
ZACube-1 21 Jan 19:48:14 19:52:37 70° 76° (ENE) 19:57:08 437.345
nSIGHT-1 21 Jan 19:53:40 19:56:47 63° 134° (SE) 19:59:54 .
AO-73 21 Jan 19:54:27 19:58:50 72° 77° (ENE) 20:03:21 145.935
AO-85 21 Jan 20:01:48 20:04:49 16° 49° (NE) 20:07:53 145.980
AAUSAT CUBESAT 2 21 Jan 20:03:02 20:07:02 48° 261° (W) 20:11:02 437.432
PCSat 21 Jan 20:03:20 20:08:40 59° 248° (WSW) 20:13:58 145.827
ISS 21 Jan 20:10:20 20:13:32 61° 134° (SE) 20:16:45 437.550
STRAND 1 21 Jan 20:25:16 20:30:20 60° 286° (WNW) 20:35:23 437.568
Oscar 11 21 Jan 20:26:53 20:31:13 77° 257° (WSW) 20:35:35 .
SEEDS 21 Jan 20:27:37 20:28:29 11° 268° (W) 20:29:21 437.485
DELFI C3 21 Jan 20:32:40 20:35:16 17° 70° (ENE) 20:37:53 145.870
XW-2A 21 Jan 20:35:56 20:38:14 17° 265° (W) 20:40:33 145.665 - 145.685
FO-29 21 Jan 20:36:38 20:41:47 66° 101° (ESE) 20:47:06 435.910
Max Valier Satellite 21 Jan 20:59:57 21:02:57 23° 72° (ENE) 21:05:57 145.860
EO-88 21 Jan 21:16:32 21:19:29 24° 72° (ENE) 21:22:27 145.990 - 145.960
BEESAT 2 21 Jan 21:22:07 21:23:09 11° 253° (WSW) 21:24:10 435.950
nSIGHT-1 21 Jan 21:31:35 21:33:13 13° 330° (NNW) 21:34:52 .
AO-85 21 Jan 21:40:35 21:45:38 70° 243° (WSW) 21:50:56 145.980
ISS 21 Jan 21:48:25 21:50:17 14° 330° (NNW) 21:52:09 437.550
TIGRISAT 21 Jan 21:54:06 21:58:34 41° 99° (E) 22:02:57 435.000
YUBILEINY 21 Jan 21:59:37 22:05:34 21° 81° (E) 22:11:31 435.215
DELFI C3 21 Jan 22:06:28 22:09:46 26° 263° (W) 22:13:05 145.870
UNISAT 6 21 Jan 22:09:29 22:14:11 69° 101° (E) 22:18:50 437.425
FO-29 21 Jan 22:24:33 22:26:19 12° 297° (WNW) 22:28:06 435.910
LO-87 21 Jan 22:32:41 22:35:34 24° 72° (ENE) 22:38:29 145.935 - 145.965
Max Valier Satellite 21 Jan 22:34:09 22:36:40 17° 265° (W) 22:39:13 145.860
ESTCUBE 1 21 Jan 22:49:54 22:54:02 36° 72° (ENE) 22:58:11 437.505/2401.250
EO-88 21 Jan 22:50:42 22:53:02 16° 265° (W) 22:55:23 145.990 - 145.960
EO-79 21 Jan 23:23:37 23:24:02 10° 92° (E) 23:24:28 145.935-145.965
TIGRISAT 21 Jan 23:31:50 23:34:51 17° 292° (WNW) 23:37:50 435.000
PRISM 21 Jan 23:38:44 23:42:42 52° 285° (WNW) 23:46:40 437.425
AIST 2D 21 Jan 23:41:19 23:44:47 78° 99° (E) 23:48:13 435.315
UNISAT 6 21 Jan 23:49:22 23:50:13 10° 296° (WNW) 23:51:04 437.425
YUBILEINY 21 Jan 23:52:38 00:01:25 71° 278° (W) 00:10:14 435.215
POLYITAN 1 21 Jan 23:55:57 23:59:37 27° 97° (E) 00:03:15 437.675
LO-87 22 Jan 00:06:49 00:08:55 15° 266° (W) 00:11:01 145.935 - 145.965
SPROUT 22 Jan 00:09:41 00:13:53 65° 75° (ENE) 00:18:06 437.525
NANOSAT C BR1 22 Jan 00:10:20 00:14:15 35° 98° (E) 00:18:08 145.865
VELOX 1 22 Jan 00:21:02 00:25:13 45° 74° (ENE) 00:29:24 145.980
NO-84 22 Jan 00:24:28 00:27:12 38° 45° (NE) 00:30:02 435.350 FM
QB50P2 22 Jan 00:25:15 00:29:33 73° 102° (ESE) 00:33:48 145.880/145.840
ESTCUBE 1 22 Jan 00:27:59 00:30:54 17° 266° (W) 00:33:49 437.505/2401.250
DX 1 22 Jan 00:36:43 00:38:13 12° 65° (ENE) 00:39:43 434.975-435.025
O/OREOS (USA 219) 22 Jan 00:39:08 00:43:38 81° 288° (WNW) 00:48:09 437.305
DUCHIFAT 1 22 Jan 00:53:08 00:57:24 79° 283° (WNW) 01:01:38 145.980
EO-79 22 Jan 00:55:52 01:00:02 52° 285° (WNW) 01:04:11 145.935-145.965
50 SAT 22 Jan 01:13:25 01:15:46 20° 72° (ENE) 01:18:08 437.505
POLYITAN 1 22 Jan 01:31:59 01:35:11 21° 291° (WNW) 01:38:22 437.675
AO-91 22 Jan 01:32:05 01:36:30 41° 99° (E) 01:41:17 145.960
NANOSAT C BR1 22 Jan 01:47:00 01:49:37 16° 292° (WNW) 01:52:14 145.865
BUGSAT 1 22 Jan 01:50:02 01:54:17 82° 283° (WNW) 01:58:31 437.445
UKube-1 22 Jan 01:55:18 01:59:30 58° 75° (ENE) 02:03:44 .
YUBILEINY 22 Jan 01:58:07 01:59:49 11° 297° (WNW) 02:01:31 435.215
Gurwin Techsat 1B 22 Jan 01:59:35 02:04:42 47° 100° (E) 02:09:48 435.225
VELOX 1 22 Jan 01:59:58 02:01:49 12° 267° (W) 02:03:42 145.980
Oscar 19 22 Jan 02:04:32 02:09:42 74° 102° (ESE) 02:14:49 437.125/150
ITUPSAT 1 22 Jan 02:07:15 02:08:56 12° 64° (ENE) 02:10:38 437.325
DX 1 22 Jan 02:09:41 02:13:53 52° 259° (W) 02:18:08 434.975-435.025
nSIGHT-1 22 Jan 02:23:55 02:25:53 15° 31° (NNE) 02:27:51 .
MOZHAYETS 4 22 Jan 02:24:21 02:28:27 32° 71° (ENE) 02:32:34
AO-7 22 Jan 02:29:17 02:33:28 14° 92° (E) 02:37:36 .
FALCONSAT 3 22 Jan 02:33:28 02:36:03 18° 150° (SSE) 02:38:38 435.103
ISS 22 Jan 02:41:48 02:43:56 16° 31° (NNE) 02:46:02 437.550
BEESAT 22 Jan 02:43:21 02:47:28 30° 70° (ENE) 02:51:36 436.000
50 SAT 22 Jan 02:46:09 02:47:25 12° 265° (W) 02:48:40 437.505
AO-91 22 Jan 03:09:31 03:12:40 18° 290° (WNW) 03:16:01 145.960
ITAMSAT 1 22 Jan 03:15:10 03:17:58 14° 93° (E) 03:20:45 435.822/435.867
Gurwin Techsat 1B 22 Jan 03:40:40 03:44:13 19° 294° (WNW) 03:47:47 435.225
ITUPSAT 1 22 Jan 03:41:26 03:46:09 63° 258° (WSW) 03:50:55 437.325
Oscar 19 22 Jan 03:46:39 03:48:19 12° 297° (WNW) 03:49:59 437.125/150
nSIGHT-1 22 Jan 03:59:09 04:02:15 49° 226° (SW) 04:05:19 .
MOZHAYETS 4 22 Jan 04:02:12 04:05:35 20° 265° (W) 04:09:00
CUBESAT XI-V 22 Jan 04:07:00 04:11:42 78° 258° (WSW) 04:16:23 437.345
FALCONSAT 3 22 Jan 04:11:07 04:14:47 66° 163° (SSE) 04:18:25 435.103
ISS 22 Jan 04:17:25 04:20:36 50° 227° (SW) 04:23:47 437.550
AO-7 22 Jan 04:18:39 04:27:04 89° 105° (ESE) 04:35:24 .
BEESAT 22 Jan 04:21:26 04:25:10 23° 264° (W) 04:28:56 436.000
DOVE 4 22 Jan 04:25:56 04:29:08 19° 96° (E) 04:32:27 437.250
ITAMSAT 1 22 Jan 04:52:36 04:57:41 55° 287° (WNW) 05:02:45 435.822/435.867
SO-50 22 Jan 05:06:03 05:10:25 63° 116° (ESE) 05:14:52 436.795
M-CUBED/EXP-1 PRIME 22 Jan 05:18:03 05:21:11 41° 104° (ESE) 05:24:16 437.505
KKS-1 22 Jan 05:20:22 05:24:47 86° 259° (W) 05:29:13 437.445
STARS 22 Jan 05:32:45 05:36:54 46° 73° (ENE) 05:41:04 437.465
LilacSat-2 22 Jan 05:48:38 05:51:25 19° 95° (E) 05:54:11 437.200
XW-2C 22 Jan 05:49:16 05:51:53 18° 95° (E) 05:54:28 145.795 - 145.815
FALCONSAT 3 22 Jan 05:50:13 05:53:52 70° 359° (N) 05:57:32 435.103
STRAND 1 22 Jan 06:01:21 06:03:43 13° 64° (ENE) 06:06:06 437.568
DOVE 4 22 Jan 06:02:51 06:06:47 32° 287° (WNW) 06:10:55 437.250
AO-7 22 Jan 06:13:33 06:18:41 18° 305° (NW) 06:23:50 .
KAITUO 1B 22 Jan 06:19:33 06:22:49 30° 97° (E) 06:26:04 145.475/437.950
XW-2F 22 Jan 06:23:26 06:27:02 48° 99° (E) 06:30:36 145.980 - 146.000
NUDT-PHONESAT 22 Jan 06:27:53 06:31:18 36° 98° (E) 06:34:40 437.300
XW-2D 22 Jan 06:34:14 06:37:59 81° 101° (ESE) 06:41:42 145.860 - 145.880
CUTE-I 22 Jan 06:35:07 06:40:19 52° 101° (E) 06:45:30 437.470
SEEDS 22 Jan 06:38:40 06:39:22 10° 92° (E) 06:40:04 437.485
